This is the latest recevied weather packets stored in our database for station/object NR0A-4. If no packets are shown the sender has not sent any weather packets the latest 10 day(s).
| Time | Temp. | Humidity | Pressure | Rain* | Wind** | Luminosity | Snow |
|---|---|---|---|---|---|---|---|
| 1777845005 | 23.33° C | 30% | 1009.1 hPa | 0 mm | - | 580 W/m² | - |
| 1777844704 | 23.33° C | 31% | 1009.2 hPa | 0 mm | - | 527 W/m² | - |
| 1777844404 | 23.89° C | 31% | 1009.3 hPa | 0 mm | - | 510 W/m² | - |
| 1777844104 | 23.33° C | 33% | 1009.5 hPa | 0 mm | - | 575 W/m² | - |
| 1777843805 | 23.33° C | 33% | 1009.5 hPa | 0 mm | - | 647 W/m² | - |
| 1777843504 | 23.33° C | 33% | 1009.7 hPa | 0 mm | - | 643 W/m² | - |
| 1777843204 | 23.33° C | 33% | 1009.6 hPa | 0 mm | - | 638 W/m² | - |
| 1777842904 | 23.33° C | 31% | 1009.8 hPa | 0 mm | - | 675 W/m² | - |
| 1777842605 | 23.33° C | 30% | 1009.7 hPa | 0 mm | - | 673 W/m² | - |
| 1777842304 | 23.33° C | 34% | 1009.9 hPa | 0 mm | - | 693 W/m² | - |
| 1777842004 | 23.33° C | 35% | 1009.9 hPa | 0 mm | - | 696 W/m² | - |
| 1777841704 | 23.33° C | 31% | 1010 hPa | 0 mm | - | 710 W/m² | - |
| 1777841405 | 23.33° C | 31% | 1010.1 hPa | 0 mm | - | 719 W/m² | - |
| 1777841104 | 22.78° C | 33% | 1010.1 hPa | 0 mm | - | 731 W/m² | - |
| 1777840805 | 22.78° C | 30% | 1010.2 hPa | 0 mm | - | 744 W/m² | - |
| 1777840504 | 22.78° C | 34% | 1010.3 hPa | 0 mm | - | 772 W/m² | - |
| 1777840205 | 22.78° C | 33% | 1010.4 hPa | 0 mm | - | 759 W/m² | - |
| 1777839905 | 23.33° C | 30% | 1010.4 hPa | 0 mm | - | 220 W/m² | - |
| 1777839604 | 23.33° C | 35% | 1010.4 hPa | 0 mm | - | 835 W/m² | - |
| 1777839304 | 23.33° C | 35% | 1010.5 hPa | 0 mm | - | 819 W/m² | - |
| 1777839004 | 22.78° C | 32% | 1010.5 hPa | 0 mm | - | 738 W/m² | - |
| 1777838705 | 22.78° C | 33% | 1010.5 hPa | 0 mm | - | 867 W/m² | - |
| 1777838405 | 22.78° C | 31% | 1010.6 hPa | 0 mm | - | 529 W/m² | - |
| 1777838105 | 22.78° C | 32% | 1010.6 hPa | 0 mm | - | 248 W/m² | - |
| 1777837804 | 22.78° C | 30% | 1010.7 hPa | 0 mm | - | 977 W/m² | - |
* Rain latest hour (hover to see other rain measurements)
** Current wind speed in m/s (hover to see current wind gust speed)